Theta_e
330 338 338 340 342 342 341 340 339 339 340 342 340 338 335 333 333 333 333 326 329 333 336 339 342 344 344 344 344 343 343 343 343 343 342 341 342 341 340 340 340 339 337
327 329 334 338 337 340 341 340 339 337 338 338 338 339 337 336 333 332 331 332 329 332 335 337 341 343 344 344 344 345 344 344 344 343 343 343 342 343 340 339 340 340 339
319 323 331 334 337 338 339 339 338 338 337 337 335 336 338 338 335 333 332 331 331 328 332 336 339 341 345 343 343 345 344 344 344 344 343 343 342 342 342 341 341 340 339
316 318 324 326 332 337 337 336 335 334 334 334 333 333 334 336 334 334 333 332 331 329 329 332 336 339 343 343 343 343 345 343 343 343 343 343 342 342 342 341 341 341 341
315 317 320 325 327 334 335 335 334 333 332 331 332 332 332 331 331 332 332 332 330 328 328 327 328 331 335 339 340 340 342 342 342 342 341 342 342 342 342 342 341 341 341
313 316 318 321 327 331 332 332 332 333 331 330 329 329 329 328 328 329 329 329 327 326 327 328 328 325 326 330 334 336 338 341 340 341 341 340 340 341 342 342 341 341 341
312 314 316 319 323 326 326 328 331 329 328 330 328 326 327 327 328 329 329 328 327 328 329 327 328 330 324 326 329 331 333 335 338 340 340 340 339 339 341 340 341 341 341
313 314 315 317 320 325 324 325 326 326 326 329 324 323 319 325 328 329 330 329 328 330 328 325 324 323 323 325 326 326 329 331 335 336 338 339 339 339 339 338 340 340 340
314 316 317 318 320 323 324 325 326 325 320 325 328 322 316 316 322 326 327 328 328 328 329 328 327 327 327 326 325 325 323 326 330 334 335 336 337 337 337 335 336 336 336
311 314 319 321 322 324 324 324 325 326 326 322 325 328 326 320 315 316 321 323 327 328 329 329 328 327 326 326 323 320 321 323 327 332 334 335 335 335 336 335 334 334 333
311 312 315 318 320 322 323 323 322 321 321 324 324 324 324 323 322 315 317 320 321 322 324 323 325 325 325 326 325 323 321 324 329 332 331 332 333 333 334 333 332 331 329
312 312 313 315 318 320 320 321 322 321 322 321 324 324 322 320 318 317 316 319 319 319 321 322 323 324 325 325 322 318 320 324 327 327 329 331 331 329 327 327 326 327 326
310 313 315 314 316 318 318 319 319 319 321 320 320 320 324 322 324 323 321 319 317 319 318 319 319 319 319 320 319 315 315 320 322 324 326 321 317 316 316 316 317 317 317
310 312 312 316 317 318 318 318 318 318 319 319 319 319 320 321 323 323 322 318 312 314 316 316 314 314 310 307 307 308 308 310 311 313 313 312 310 310 310 310 311 311 311
308 311 312 311 313 313 314 317 316 315 317 316 317 317 317 320 323 325 322 320 314 309 311 314 310 307 304 302 303 303 302 304 306 307 307 306 305 305 305 305 305 306 306
307 308 309 308 309 310 311 312 312 313 314 315 315 316 316 319 319 320 321 320 319 315 310 313 306 300 301 299 301 300 300 300 300 301 301 301 302 302 302 302 303 304 305
303 305 306 306 306 307 308 308 308 309 307 308 309 309 306 308 306 306 306 306 304 307 309 303 302 300 296 296 297 298 297 296 295 297 298 299 300 300 300 301 301 301 302
301 301 303 302 302 304 304 305 304 304 303 303 303 303 302 302 300 301 300 300 299 299 303 300 297 296 294 294 295 294 293 295 293 295 296 297 298 298 298 299 299 300 300
299 299 300 299 299 300 301 301 300 299 300 300 300 300 300 298 296 296 296 296 296 295 296 296 293 295 294 291 292 293 292 292 293 293 294 295 296 296 296 297 298 298 298
297 297 298 298 299 298 298 299 298 298 298 296 296 296 295 295 294 293 293 293 293 292 292 291 290 289 290 290 290 289 289 291 290 292 293 293 294 294 294 295 296 295 296
294 294 295 295 296 297 298 297 297 297 295 293 294 294 294 294 294 293 291 290 291 289 289 288 287 288 288 287 286 288 287 288 290 292 291 291 291 292 292 293 293 294 296
290 290 291 292 293 295 297 297 296 295 294 292 291 291 292 292 293 294 293 293 291 289 288 287 286 286 286 286 287 287 286 285 285 292 288 287 290 290 291 293 293 294 295
289 288 289 290 291 293 295 295 293 292 291 290 290 290 289 289 289 288 290 291 292 291 290 288 286 286 286 286 287 286 286 285 285 287 286 285 290 289 292 291 292 293 294
289 288 287 288 290 292 294 293 291 289 289 289 289 289 289 289 289 287 287 286 287 288 288 287 287 287 287 288 288 287 286 285 285 286 287 283 288 288 289 291 291 292 294
287 288 287 287 287 289 293 292 288 287 287 287 288 288 289 289 291 289 286 285 285 286 288 287 287 287 287 288 288 286 283 282 282 284 286 285 286 286 288 289 291 291 292
287 287 287 286 287 287 291 293 288 286 285 286 287 288 290 289 291 290 286 285 285 285 285 284 284 285 285 285 285 284 283 280 279 281 287 283 283 284 283 288 289 289 290
Wind_Speed
6 6 5 6 7 7 8 9 9 9 11 13 12 12 13 12 11 7 6 12 14 16 17 16 18 17 16 16 15 14 14 15 14 13 13 14 13 13 13 13 14 13 13
7 8 7 6 7 8 8 9 10 9 9 9 13 14 15 13 13 12 8 8 14 15 17 18 18 19 18 17 16 16 15 15 15 15 15 15 14 14 15 15 14 14 14
9 10 8 7 6 6 10 8 8 9 9 8 10 12 13 15 13 14 11 9 9 14 15 18 17 18 18 19 19 16 15 15 15 15 16 15 15 15 15 15 15 15 15
10 9 8 9 8 7 6 7 7 8 8 9 8 8 9 10 11 14 11 10 10 9 11 17 16 17 17 20 20 20 17 15 14 15 15 16 16 16 16 16 17 17 17
11 9 8 8 10 8 8 7 6 7 8 9 9 8 7 7 9 7 13 13 11 10 8 9 12 13 14 17 21 21 19 18 15 15 16 16 16 17 17 17 18 18 18
11 9 8 10 9 8 8 9 9 7 7 8 7 7 7 7 7 8 9 8 10 10 10 10 5 3 12 18 19 20 20 18 18 17 17 18 17 17 17 18 18 19 19
11 10 8 9 9 9 10 11 10 10 7 7 5 5 8 8 11 10 9 9 10 11 10 8 5 6 8 16 14 17 18 20 19 17 17 17 17 17 17 16 17 17 19
11 10 9 8 10 8 10 11 11 6 5 6 3 3 4 5 8 10 9 10 13 8 10 8 7 7 7 5 8 12 15 17 19 20 18 15 14 17 18 16 17 16 16
9 9 9 9 9 8 8 9 9 11 7 5 10 5 2 4 1 3 9 9 11 8 8 8 8 7 8 6 7 9 12 15 18 18 19 18 16 18 18 18 16 14 10
9 8 8 7 8 7 8 8 8 10 10 9 4 8 7 3 3 5 3 4 7 8 8 6 5 8 8 6 8 10 10 12 16 16 16 14 14 13 15 17 15 12 11
8 8 6 6 7 7 7 8 8 7 8 9 8 5 8 6 8 4 8 3 2 4 4 5 6 5 6 6 5 7 11 12 13 10 8 8 10 8 10 10 5 3 4
7 7 6 5 6 6 7 6 7 9 8 7 8 7 8 5 6 6 7 8 3 3 3 3 2 4 4 5 6 7 6 7 7 6 8 11 9 3 5 4 4 5 7
6 9 9 6 5 6 6 6 7 9 8 7 7 7 7 8 7 7 8 5 5 2 2 1 4 4 5 6 5 9 14 9 6 5 9 12 10 10 9 6 6 5 7
6 7 9 8 6 6 6 6 5 5 6 6 8 8 7 8 6 7 4 5 3 3 1 3 3 5 5 6 8 13 10 14 13 12 11 10 10 9 8 9 8 8 8
7 7 6 7 7 6 7 5 3 5 5 6 7 8 8 6 5 6 4 4 2 3 3 4 3 5 5 5 7 7 7 10 12 12 12 12 11 10 9 8 9 10 9
9 8 5 3 5 5 4 4 4 4 3 3 3 2 3 4 2 3 1 2 2 2 2 2 4 4 4 6 8 6 5 6 12 11 10 9 9 8 7 7 9 9 10
8 9 8 5 6 6 5 2 3 5 6 5 6 5 6 6 4 4 5 4 4 2 2 3 4 3 3 6 4 4 4 3 3 6 9 8 7 4 8 9 11 13 13
6 6 6 6 6 6 6 6 4 4 5 5 5 6 6 5 8 6 4 5 5 4 1 3 3 3 5 3 2 3 3 2 3 4 8 4 5 8 10 11 11 12 13
6 6 7 6 6 6 5 6 5 6 8 8 8 8 7 6 7 5 6 5 5 4 3 3 3 2 1 2 1 2 5 4 4 6 5 4 10 11 11 11 11 12 13
5 6 6 6 6 6 6 6 6 8 9 9 9 9 9 8 8 6 6 5 4 4 4 4 3 2 1 2 1 3 4 4 6 3 1 5 10 10 11 11 11 12 12
5 4 5 5 6 4 4 5 5 6 7 8 8 8 8 9 12 9 5 4 5 4 3 3 3 2 2 1 2 3 4 7 4 1 5 6 7 6 6 8 9 12 15
2 3 4 4 4 3 7 6 5 5 6 7 8 8 7 9 11 12 12 11 7 4 3 3 2 2 1 1 2 4 5 6 4 2 9 9 7 6 6 5 13 16 15
1 2 2 2 3 3 5 6 7 5 6 6 6 5 5 5 7 6 10 10 11 11 10 4 4 2 2 3 4 5 5 6 5 6 8 7 3 6 6 8 14 13 12
5 4 3 2 1 2 4 6 7 5 5 4 4 4 5 4 4 4 4 5 5 6 6 4 4 2 2 4 3 4 4 7 9 5 3 5 5 7 9 8 13 11 7
4 4 3 4 4 3 1 7 7 4 4 4 3 3 3 3 4 6 4 4 4 4 6 8 6 4 5 5 5 3 4 6 5 3 2 3 6 9 9 6 6 8 18
5 4 5 5 7 5 4 9 7 4 5 3 3 3 4 3 2 5 3 1 0 0 2 3 3 3 5 5 8 4 3 4 4 6 1 6 6 5 6 4 6 9 8
Wind_Direction
275 266 251 256 254 257 250 244 244 241 240 241 238 237 236 232 234 231 233 216 228 233 238 245 245 243 239 235 237 244 243 245 247 249 248 252 248 251 256 259 256 247 251
279 272 263 241 242 246 252 251 246 238 237 236 238 237 240 238 235 233 233 235 227 235 241 244 246 241 243 247 244 240 242 243 246 249 249 251 249 245 248 253 254 258 249
274 276 272 266 249 236 243 240 245 247 239 231 237 242 239 240 237 234 232 236 236 230 235 244 245 245 245 248 251 252 247 242 239 244 247 248 250 247 246 248 246 247 250
274 267 261 260 260 246 234 226 226 229 230 238 231 234 238 238 240 239 234 234 234 237 227 236 242 244 245 249 252 255 254 250 244 242 243 246 248 247 246 248 247 245 240
265 255 255 257 259 252 245 230 223 226 236 237 235 239 239 232 238 241 241 239 235 232 234 229 231 244 250 250 255 257 260 258 253 247 246 246 246 247 249 251 251 250 246
268 263 252 250 249 251 254 252 232 223 230 238 233 232 229 226 234 234 241 240 232 227 230 233 235 270 274 259 257 261 262 262 260 256 249 246 245 246 250 251 252 252 252
268 261 256 249 238 244 249 254 254 246 235 229 226 236 243 230 226 229 223 224 232 225 228 224 219 211 240 241 248 256 260 265 263 259 259 254 245 244 251 256 256 252 250
274 270 260 252 244 241 244 249 252 242 247 220 213 225 259 228 235 235 231 225 225 210 223 218 208 226 234 253 261 250 258 265 268 267 263 256 253 246 248 251 250 249 246
291 282 273 264 258 249 248 244 237 236 234 213 211 230 224 234 308 211 239 238 231 217 221 224 216 232 252 252 256 260 250 257 266 267 264 265 263 254 246 244 242 245 246
301 291 282 268 259 254 248 245 248 243 229 229 231 215 230 169 238 283 210 241 237 232 229 225 241 241 242 246 252 253 261 263 269 269 263 265 264 258 242 239 245 250 255
310 297 291 285 271 268 259 251 244 249 252 245 216 190 220 224 225 218 267 220 225 224 208 188 205 242 263 267 284 273 248 258 258 250 256 264 269 276 271 264 260 295 301
326 328 315 291 275 268 279 279 266 252 247 245 246 220 194 189 204 210 234 245 198 200 179 249 296 298 317 323 302 288 279 259 245 271 279 277 279 99 62 34 353 329 314
335 334 325 309 298 293 289 277 264 261 245 234 235 232 230 221 222 213 216 226 208 184 168 127 73 15 9 18 8 53 40 42 59 70 63 56 48 39 35 25 5 345 329
316 319 332 334 328 312 300 288 271 257 259 250 241 236 234 232 211 220 212 197 176 194 165 170 100 89 63 62 47 55 53 48 46 48 53 46 42 33 25 6 354 331 319
315 316 333 344 350 354 341 321 290 295 287 271 258 251 243 243 197 203 189 198 250 179 227 177 121 74 79 75 53 53 56 37 41 31 36 28 16 357 345 334 321 304 299
323 318 331 356 345 338 340 355 360 350 353 10 349 303 323 352 10 65 161 198 228 228 149 28 61 88 63 70 56 55 57 46 35 4 2 356 336 319 311 316 312 315 323
334 333 332 1 357 351 348 40 65 51 52 38 33 60 58 45 45 38 37 43 57 24 222 87 68 76 49 53 42 23 14 21 23 343 336 332 317 342 348 333 326 318 308
345 344 348 28 15 9 10 17 26 40 78 84 75 78 71 75 69 63 65 65 68 35 44 93 77 63 70 29 356 357 341 350 316 319 326 347 340 353 343 333 326 318 312
352 356 9 24 24 20 26 37 42 47 44 51 59 65 63 81 84 83 86 87 82 67 56 100 102 40 106 58 286 320 323 315 323 304 316 13 350 349 338 331 326 318 317
5 11 20 17 15 22 24 42 62 66 67 59 59 67 67 67 79 80 79 81 94 100 101 100 96 125 62 65 12 340 313 318 316 332 352 346 332 325 324 326 321 318 307
11 16 23 22 14 25 42 62 74 85 93 91 81 78 77 83 83 80 82 69 87 93 82 101 84 97 64 40 11 327 307 326 337 58 331 329 321 314 321 324 320 309 310
58 45 41 34 33 27 48 64 90 98 99 98 94 80 67 58 70 73 72 75 73 87 122 101 151 112 100 359 343 341 337 350 335 43 338 312 305 311 316 323 319 317 311
176 102 83 67 50 16 79 100 107 106 109 109 106 103 89 72 70 67 65 61 65 68 66 73 81 57 358 1 326 327 337 323 299 317 311 301 320 310 319 314 311 313 308
201 187 185 164 149 352 110 108 104 103 100 92 95 97 100 101 98 94 90 88 73 66 70 62 57 40 314 325 321 320 331 310 297 289 302 282 329 316 319 311 311 325 334
210 213 201 191 196 214 179 134 120 112 104 105 123 129 118 84 112 82 71 67 62 65 44 38 31 32 33 5 25 342 335 327 318 313 340 310 325 323 317 320 333 335 325
214 207 214 216 212 201 207 169 154 154 155 160 162 170 164 172 143 129 102 97 311 144 4 9 27 37 28 17 9 358 325 315 308 304 138 337 318 339 321 317 322 313 309